Location: Unspecified
(33.6682°S, 0.0000°E)
Time: 18:58:14
(UTC+00:00)

S-56A Canister/Altair - Pass Details

Date: 01 July 2019
Orbit: 633 x 2499 km, 38.9° (Epoch: 19 August)

Event Time Altitude Azimuth Distance (km) Brightness Sun altitude
Exits shadow 02:11:06 14° 110° (ESE) 3,354 11.0 -60.2°
Drops below altitude 10° 02:12:24 10° 109° (ESE) 3,790 11.4 -60.0°
Sets 02:16:16 0° 107° (ESE) 5,085 12.2 -59.2°
